Flag for USA

Past Weather in Sunnyvale, California, USA — Yesterday and Last 2 Weeks

Now
66 °F

Overcast.


Feels Like: 66 °F
Forecast: 79 / 61 °F
Wind: No wind

Location: Moffett Field
Current Time: Sep 24, 2020 at 5:01:52 am
Latest Report: Sep 24, 2020 at 4:10 am
Visibility: 10 mi
Pressure30.06 "Hg
Humidity: 88%
Dew Point: 63 °F
Location of SunnyvaleLocation

Past Weather in Sunnyvale — Graph

°F

Sunnyvale Temperature Yesterday

Maximum temperature yesterday: 66 °F (at 11:30 pm)
Minimum temperature yesterday: 57 °F (at 6:10 am)
Average temperature yesterday: 60 °F

High & Low Weather Summary for the Past Weeks

 TemperatureHumidityPressure
High68 °F (Sep 17, 1:15 am)100% (Sep 12, 6:15 am)30.09 "Hg (Sep 12, 6:15 am)
Low57 °F (Sep 11, 2:55 am)73% (Sep 9, 6:15 am)29.75 "Hg (Sep 9, 3:15 am)
Average62 °F87%29.98 "Hg
* Reported Sep 9 3:15 am — Sep 24 3:50 am, Sunnyvale. Weather by CustomWeather, © 2020

Note: Actual official high and low records may vary slightly from our data, if they occured in-between our weather recording intervals... More about our weather records

Sunnyvale Weather History for the Previous 24 Hours

Scroll right to see more
 ConditionsComfort  
Time TempWeatherWind HumidityBarometerVisibility
3:50 am
Thu, Sep 24
64 °FPassing clouds.No wind94%30.05 "Hg10 mi
3:30 am66 °FMild.No wind88%30.05 "Hg10 mi
3:10 am66 °FMild.No wind88%30.05 "Hg10 mi
2:50 am66 °FMild.5 mph88%30.05 "Hg10 mi
2:30 am66 °FOvercast.No wind88%30.06 "Hg10 mi
2:10 am66 °FOvercast.No wind88%30.06 "Hg10 mi
1:50 am66 °FOvercast.5 mph88%30.07 "Hg10 mi
1:30 am66 °FOvercast.No wind88%30.07 "Hg10 mi
1:10 am66 °FOvercast.3 mph88%30.07 "Hg10 mi
12:50 am66 °FMild.No wind88%30.08 "Hg10 mi
12:30 am66 °FMild.5 mph83%30.08 "Hg10 mi
12:10 am66 °FOvercast.5 mph83%30.08 "Hg10 mi
11:50 pm
Wed, Sep 23
66 °FMild.3 mph83%30.08 "Hg10 mi
11:30 pm66 °FMild.6 mph83%30.08 "Hg10 mi
6:55 am59 °FCool.No wind77%30.09 "Hg10 mi
6:30 am57 °FCool.No wind82%30.09 "Hg10 mi
6:10 am57 °FCool.No wind82%30.08 "Hg10 mi
5:50 am59 °FCool.No wind77%30.08 "Hg10 mi
5:30 am59 °FCool.No wind77%30.08 "Hg10 mi
Weather by CustomWeather, © 2020

See weather overview